SCP
0 -0 -0 -0 -0 -0 -0 -0 -0 -0 -0 -0 -0 -0 -0 0 0 -0 -0 -0 0 -0 -0 -0 -0 -0 -0 -0 0 0 0 0 0 0 0 0 0 0 0 0 0 0 0 0 0 0 0
0 0 -0 -0 -0 -0 -0 -0 -0 -0 -0 -0 -0 -0 -0 -0 -0 -0 -0 -0 -0 -0 -0 -0 -0 -0 -0 -0 0 0 0 0 0 -0 0 0 0 -0 0 -0 0 0 0 0 0 0 -0
0 0 -0 -0 -0 -0 -0 -0 -0 -0 -0 -0 -0 -0 -0 -0 -0 -0 -0 0 0 -0 -0 -0 -0 -0 -0 0 0 0 0 0 0 0 0 0 0 0 -0 0 -0 -0 0 0 0 0 0
-0 -0 -0 -0 -0 -0 -0 -0 -0 -0 -0 -0 -0 -0 -0 -0 0 -0 -0 -0 0 -0 -0 -0 -0 -0 0 0 0 0 0 0 -0 0 0 0 0 0 0 0 0 0 0 0 0 0 0
-0 -0 -0 -0 -0 -0 -0 -0 -0 -0 -0 -0 -0 -0 -0 -0 0 0 -0 0 0 -0 -0 0 -0 0 0 0 0 0 0 0 0 -0 0 0 0 0 0 0 0 0 0 0 0 -0 0
-0 -0 -0 -0 -0 -0 -0 -0 -0 -0 -0 -0 -0 -0 -0 -0 0 -0 0 0 0 -0 0 0 0 -0 0 0 0 0 0 0 0 0 0 0 0 0 0 0 0 0 0 -0 0 0 0
0 0 -0 -0 -0 -0 -0 -0 -0 -0 -0 -0 -0 -0 -0 -0 -0 -0 -0 0 0 0 0 0 -0 0 0 0 0 0 0 0 0 0 0 0 0 0 0 0 0 0 0 0 0 0 0
-0 -0 0 -0 -0 -0 -0 -0 -0 -0 -0 -0 -0 -0 -0 -0 0 -0 0 0 0 0 0 0 -0 0 0 0 0 -0 0 0 0 0 0 0 0 0 0 0 0 0 0 0 0 0 0
-0 -0 -0 -0 -0 0 -0 -0 -0 -0 -0 -0 -0 -0 -0 -0 -0 0 0 0 0 0 0 0 -0 0 0 0 0 -0 0 0 0 0 0 0 0 0 0 0 0 0 0 0 0 0 0
-0 0 0 0 -0 -0 -0 -0 -0 -0 -0 -0 -0 -0 -0 -0 0 0 0 0 0 0 0 0 0 0 0 0 0 0 0 0 0 0 0 0 0 0 0 0 0 0 0 0 0 0 0
0 0 0 0 0 0 -0 0 -0 -0 -0 -0 -0 -0 -0 0 0 0 0 0 0 0 0 0 0 0 0 0 0 0 0 0 0 0 0 0 0 0 0 0 0 0 0 0 0 0 0
0 0 0 0 0 0 0 0 0 -0 -0 -0 -0 -0 0 0 0 0 0 -0 0 0 0 0 0 0 0 0 0 0 0 0 0 0 0 0 0 0 0 0 0 0 0 0 0 0 0
0 0 0 0 0 0 0 0 0 0 -0 -0 -0 -0 0 0 0 0 0 0 0 0 0 0 0 0 0 0 0 0 0 0 0 0 0 0 -0 0 0 0 0 0 0 0 0 0 0
0 0 0 0 0 0 0 0 0 0 -0 -0 -0 -0 0 0 0 0 0 0 0 0 0 0 0 0 0 0 0 0 0 0 0 0 0 0 0 0 0 0 0 0 0 0 0 0 0
0 0 0 0 0 0 0 0 0 0 -0 -0 0 0 0 0 -0 0 0 0 0 0 0 0 -0 0 0 0 0 0 0 0 0 0 0 0 0 -0 0 0 0 0 0 0 0 0 0
0 0 0 0 0 0 0 0 0 0 0 -0 0 0 0 0 0 0 0 0 0 0 0 0 0 0 0 0 0 0 0 0 0 0 0 0 0 0 0 0 0 0 0 0 0 0 0
0 0 0 0 0 0 0 0 0 0 0 0 0 0 0 0 0 0 0 0 0 0 0 0 0 0 0 0 0 0 0 0 0 0 0 0 0 0 0 0 0 0 0 0 0 0 0
0 0 0 0 0 0 0 0 0 0 0 -0 0 0 0 0 0 0 0 0 0 0 0 0 0 0 0 0 0 0 0 0 0 0 0 0 0 0 0 0 0 -0 0 0 0 0 0
0 0 0 0 0 0 0 0 0 0 0 -0 0 0 0 0 0 0 0 0 0 0 0 0 0 0 0 0 0 0 0 0 0 0 0 0 0 0 0 0 0 0 0 0 0 0 0
0 0 0 0 0 0 0 0 0 0 0 0 -0 0 0 0 0 0 0 0 0 0 0 0 0 0 0 0 0 0 0 0 0 0 0 0 0 0 0 0 0 0 -0 0 0 0 0
0 0 0 0 0 0 0 0 0 0 0 0 0 0 0 0 0 0 0 0 0 0 0 0 0 0 0 0 0 0 0 0 0 0 0 0 0 0 0 0 0 0 0 0 0 0 0
0 0 0 0 0 0 0 0 0 0 0 0 0 0 0 0 0 0 0 0 0 0 0 0 0 0 0 0 0 0 0 0 0 0 0 0 0 0 0 0 0 0 0 0 0 0 0
0 0 0 0 0 0 0 0 0 0 0 0 0 0 0 0 0 0 0 0 0 0 0 0 0 0 0 0 0 0 0 0 0 0 0 0 0 0 0 0 0 0 0 0 0 0 0
0 0 0 0 0 0 0 0 0 0 0 0 0 0 0 0 0 0 0 0 0 0 0 0 0 0 0 0 0 0 0 0 0 0 0 0 0 0 0 0 0 0 0 0 0 0 0
0 0 0 0 0 0 0 0 0 0 0 0 0 0 0 0 0 0 0 0 0 0 0 0 0 0 0 0 0 0 0 0 0 0 0 0 0 0 0 0 0 0 0 0 0 0 0
0 0 0 0 0 0 0 0 0 0 0 0 0 0 0 0 0 0 0 0 0 0 0 0 0 0 0 0 0 0 0 0 0 0 0 0 0 0 0 0 0 0 0 0 0 0 0
0 0 0 0 0 0 0 0 0 0 0 0 0 0 0 0 0 0 0 0 0 0 0 0 0 0 0 0 0 0 0 0 0 0 0 0 0 0 0 0 0 0 0 0 0 0 0
0 0 0 0 0 0 0 0 0 0 0 0 0 0 0 0 0 0 0 0 0 0 0 0 0 0 0 0 0 0 0 0 0 0 0 0 0 0 0 0 0 0 0 0 0 0 0
0 0 0 0 0 0 0 0 0 0 0 0 0 0 0 0 0 0 -0 -0 -0 -0 0 0 0 0 0 0 0 0 0 0 0 0 -0 0 0 0 0 0 0 0 0 0 0 0 0
Wind_Speed_500mb
56 57 58 61 63 65 67 67 64 58 52 42 35 31 29 29 29 27 22 12 5 3 2 4 10 16 23 14 8 14 12 15 23 32 30 21 32 29 14 19 33 14 16 31 38 38 34
56 56 57 58 60 62 63 64 63 59 52 43 35 29 28 29 30 29 22 10 1 4 2 8 14 22 23 16 12 12 24 22 13 17 21 27 25 26 24 23 16 21 28 33 39 45 43
55 55 55 57 58 61 62 62 62 59 53 46 34 27 26 27 30 29 21 7 4 3 1 7 15 26 25 19 11 17 19 11 16 11 12 16 19 16 25 16 26 41 19 22 40 41 26
54 54 54 55 57 59 61 62 61 59 55 47 39 27 23 24 28 29 20 5 2 8 9 14 19 25 21 15 13 8 19 16 19 18 15 24 18 26 29 31 35 18 13 11 21 15 16
54 55 56 56 57 60 61 61 61 58 56 51 42 30 21 21 24 24 19 7 4 5 10 17 21 16 27 13 7 14 10 13 22 17 23 23 23 32 40 11 13 7 6 15 17 24 15
54 55 55 57 60 60 61 62 62 59 56 52 46 37 22 18 19 18 20 20 13 14 16 24 29 18 23 9 20 10 10 15 20 22 30 24 22 12 11 4 7 14 17 18 18 22 27
54 54 56 58 62 65 66 65 63 62 57 52 47 41 30 18 18 13 16 22 20 7 14 21 34 27 19 13 16 10 8 17 27 25 13 28 4 15 9 12 11 13 16 19 27 26 13
54 56 57 59 61 64 68 70 67 64 60 54 50 43 34 19 17 10 14 13 21 24 35 41 47 48 26 15 16 17 5 11 20 15 24 14 12 11 6 8 11 17 21 25 14 18 24
55 56 58 60 62 65 68 71 71 68 63 56 52 46 36 19 8 13 17 16 28 27 11 34 33 31 20 16 25 25 8 15 15 16 19 10 19 26 9 13 17 15 14 16 22 25 22
55 55 56 58 62 67 71 72 72 70 66 59 53 48 38 17 13 17 18 16 20 28 5 10 17 10 17 21 28 15 10 2 7 15 13 12 17 26 14 19 11 10 23 23 28 22 20
54 54 54 57 61 67 71 74 74 72 68 62 54 50 31 16 10 12 16 22 32 4 7 20 14 18 10 16 22 6 17 13 16 18 15 16 26 27 24 7 11 12 21 25 28 28 20
57 57 56 58 61 64 69 74 74 73 70 64 53 49 29 11 5 20 24 29 18 3 11 15 18 18 20 23 17 37 18 29 30 17 20 25 42 30 20 7 3 22 16 19 24 16 3
56 55 55 58 63 66 68 72 75 72 70 66 56 45 32 22 9 12 25 17 5 7 6 11 4 8 15 16 22 1 8 10 10 14 13 13 20 21 13 3 10 12 12 10 10 8 9
56 55 55 57 60 66 71 73 73 73 69 67 56 47 27 14 4 16 12 6 8 19 19 14 16 15 14 24 6 6 9 15 18 15 7 2 15 7 18 6 10 8 9 7 8 5 22
54 58 60 60 63 66 70 74 73 71 69 68 60 45 29 7 3 7 6 4 10 7 19 10 18 10 17 23 2 7 10 15 11 8 2 5 9 24 27 22 12 7 6 16 11 12 8
52 55 58 60 60 64 68 71 75 72 69 66 62 44 20 7 16 3 2 12 15 26 10 13 7 6 14 20 22 22 13 18 13 15 16 7 18 14 26 30 25 14 14 6 6 8 11
53 56 58 58 61 65 66 67 71 74 71 63 44 23 12 17 9 9 7 13 28 19 11 3 6 11 17 22 19 20 12 28 17 16 22 13 4 8 20 8 21 19 10 10 11 8 8
54 57 57 59 62 66 65 65 63 68 70 62 28 11 16 9 5 13 9 14 30 28 21 5 10 14 16 16 14 20 25 16 32 6 7 8 6 14 26 32 35 31 27 17 7 15 10
49 52 54 57 60 63 63 61 58 57 61 64 45 21 23 18 6 9 16 19 36 24 18 4 3 9 15 16 11 11 18 31 44 17 4 5 6 10 15 14 6 6 15 10 8 5 18
47 52 55 57 57 58 60 61 59 51 47 50 17 8 19 35 19 17 18 12 21 28 31 39 15 14 10 15 15 15 19 13 44 36 46 17 13 18 27 22 16 35 51 44 27 12 28
54 56 55 57 59 61 60 58 58 53 40 36 8 12 21 10 17 34 17 16 37 35 37 42 7 14 16 12 14 15 23 27 27 38 16 5 13 19 30 39 42 45 44 46 47 37 33
53 54 54 55 56 57 55 52 53 49 38 20 16 15 25 42 41 27 16 14 31 36 30 13 14 19 16 14 13 21 19 9 11 11 16 6 21 21 46 31 35 45 49 49 41 43 43
54 54 54 55 55 53 52 49 46 45 36 10 23 27 19 15 21 22 20 30 36 41 21 42 20 14 16 22 35 32 31 30 21 18 26 17 21 9 53 18 33 35 41 38 45 43 38
50 51 51 51 50 49 48 46 42 37 33 26 26 30 19 15 18 23 41 51 40 37 27 36 36 19 38 19 30 32 40 45 51 42 48 33 30 12 32 14 30 18 18 27 38 36 30
46 47 47 46 46 45 44 42 40 34 32 32 25 18 29 15 31 38 39 38 54 55 42 47 46 37 30 15 8 13 8 26 24 41 39 38 29 10 14 19 27 37 33 23 30 24 15
43 43 43 42 42 42 41 40 38 36 31 31 27 15 31 22 15 37 50 42 28 21 19 26 43 50 37 2 4 8 7 19 10 15 19 10 30 22 4 10 10 5 31 51 17 12 12
41 40 40 40 40 40 39 38 37 36 32 31 33 16 34 44 54 55 32 25 34 31 18 33 36 50 36 3 9 11 22 16 12 15 25 13 6 11 14 10 11 12 8 29 8 10 39
39 38 38 38 38 38 38 38 37 35 32 33 38 21 27 44 70 72 79 71 60 50 23 29 27 8 11 12 11 14 8 1 10 14 10 8 7 6 8 9 9 25 34 8 12 31 34
36 35 36 37 37 36 36 37 35 36 32 29 43 26 33 53 73 76 71 75 76 76 65 53 32 45 11 5 3 5 7 7 9 9 15 9 4 7 8 10 35 45 36 38 53 45 43
Wind_Direction_500mb
33 31 29 27 27 26 24 22 22 21 21 20 18 16 16 15 11 4 359 353 1 43 267 314 336 341 342 318 255 342 19 5 17 357 343 347 11 1 358 305 333 348 317 314 319 323 316
32 29 28 26 23 22 21 20 19 18 16 15 13 11 10 10 9 4 359 350 24 66 316 309 328 337 346 292 309 316 342 343 357 1 348 12 4 335 294 334 331 291 313 314 294 277 271
28 27 25 22 20 18 16 16 14 14 14 11 6 4 3 3 4 3 360 358 182 138 42 316 326 329 322 271 317 293 296 310 301 328 326 329 328 342 313 294 285 305 303 292 271 250 238
23 22 22 20 16 14 12 11 10 8 9 8 5 357 354 356 357 0 0 15 223 236 265 289 300 316 287 238 343 290 298 296 323 293 312 298 294 298 272 267 289 261 269 268 302 34 265
20 18 16 15 14 10 8 6 6 4 2 2 1 355 345 343 352 351 1 350 274 276 271 286 295 311 282 209 323 324 281 301 320 308 292 285 273 264 280 271 306 27 298 329 323 339 325
15 14 13 11 9 8 4 2 1 1 359 356 356 352 337 332 335 347 343 322 290 281 277 283 271 294 269 275 335 306 281 314 295 280 291 267 239 239 268 225 287 331 336 323 303 308 311
11 10 9 7 6 4 3 1 359 358 358 353 351 347 338 322 327 326 352 356 346 301 254 244 276 244 297 331 313 306 235 317 280 258 265 286 136 246 295 34 351 323 300 285 284 282 324
6 4 4 4 4 5 4 3 360 356 355 353 347 345 339 318 323 309 317 316 347 303 299 288 262 258 278 256 282 295 265 339 338 296 295 318 238 199 42 320 287 267 268 275 279 335 336
3 1 0 360 359 359 359 360 359 356 353 352 346 344 339 319 297 317 305 309 336 320 297 292 253 220 269 205 268 297 278 321 313 293 292 320 279 291 3 315 293 289 291 333 325 323 300
359 356 356 355 354 353 353 355 356 355 351 350 346 343 338 321 294 312 324 343 311 328 314 250 177 227 224 247 245 243 206 12 307 290 319 291 267 339 328 284 348 346 338 325 302 295 291
354 353 351 351 352 351 350 350 352 352 351 347 347 341 339 329 306 293 8 332 334 324 316 143 179 167 223 227 265 193 198 198 244 277 301 254 293 293 275 270 51 275 279 267 278 286 296
351 350 350 350 351 351 349 348 348 349 348 346 347 338 335 281 253 1 330 315 324 337 251 165 149 198 207 240 313 299 189 228 249 241 249 253 270 255 265 59 353 274 292 315 284 266 234
349 349 350 350 349 349 349 347 344 346 346 343 344 334 321 247 236 357 314 323 343 220 228 114 83 15 347 309 286 294 290 338 265 283 288 309 305 277 129 181 265 308 357 324 340 354 244
346 348 347 346 347 346 346 346 344 344 345 340 342 335 314 291 181 354 316 357 249 276 310 26 12 320 280 268 210 283 235 253 269 265 230 264 309 329 24 15 286 301 172 184 279 299 299
340 342 343 343 344 344 345 345 345 344 346 341 339 339 306 171 102 305 318 269 242 264 336 13 331 338 320 352 225 246 291 288 288 91 101 358 252 315 330 329 326 293 303 237 258 264 319
331 336 338 339 342 344 343 344 344 345 347 347 340 332 325 229 198 273 147 242 280 286 351 24 348 319 294 325 342 339 325 301 336 327 141 219 294 274 303 312 293 182 217 305 300 304 257
326 330 333 336 339 342 342 344 344 343 345 349 344 330 206 157 247 199 212 247 283 310 78 52 336 331 317 313 311 303 290 315 5 10 21 13 265 301 338 279 283 292 298 273 212 177 224
330 328 331 332 335 337 339 340 346 344 341 350 357 311 170 324 235 233 229 261 324 337 330 194 176 235 258 284 302 307 303 286 335 54 325 351 272 283 263 283 279 269 272 262 183 268 237
319 321 323 327 331 336 338 340 345 348 344 344 333 282 339 210 241 285 305 324 329 309 327 74 282 347 325 306 315 266 292 306 308 304 241 166 281 324 304 304 333 43 337 310 263 8 261
316 318 322 324 329 333 334 337 339 346 342 336 317 297 335 330 310 23 359 318 314 316 312 306 254 231 284 278 269 260 258 289 316 318 331 186 193 212 255 251 283 285 296 296 286 241 275
317 319 321 324 327 330 331 333 333 337 343 328 270 302 352 313 324 323 313 289 294 297 294 292 288 220 239 266 291 292 314 315 306 306 323 185 243 246 260 270 265 266 268 265 273 276 279
313 316 318 320 324 325 327 329 330 333 338 326 309 349 330 304 298 309 315 307 301 296 289 299 329 312 312 288 272 296 299 313 252 307 303 275 277 279 274 276 280 285 271 268 271 278 277
310 314 316 319 321 323 326 329 332 332 341 330 293 304 330 280 295 290 281 286 303 318 312 323 326 327 309 296 304 309 311 299 268 268 264 257 275 299 275 300 300 279 251 261 265 261 262
310 313 316 318 320 322 325 327 329 330 329 317 312 321 280 281 290 293 303 305 314 325 322 319 322 316 301 313 315 310 300 282 269 261 250 251 248 241 267 307 267 259 246 257 263 262 261
311 312 314 317 319 321 323 325 325 325 318 310 316 312 307 290 302 292 292 329 321 321 314 310 305 311 337 336 339 305 274 275 260 245 245 221 228 233 234 230 275 309 296 312 303 282 24
309 311 313 316 318 320 322 323 322 322 319 310 301 273 304 291 255 293 312 305 293 305 311 322 312 324 329 333 215 250 263 326 280 306 322 321 220 224 166 215 228 276 35 357 326 283 28
308 310 313 315 317 319 319 320 319 320 318 312 305 320 307 284 282 275 286 301 300 298 289 300 305 317 317 268 264 262 262 256 260 267 288 308 337 211 241 258 261 280 14 5 347 295 311
307 309 311 314 316 317 318 319 319 318 322 321 306 305 302 285 282 275 278 278 281 276 278 294 329 293 300 255 246 250 268 274 286 326 344 272 308 266 269 236 261 347 341 347 275 306 305
305 307 310 313 314 317 315 315 318 316 316 314 301 302 281 289 273 278 265 267 265 266 275 277 264 290 298 349 335 320 304 301 274 271 312 286 333 280 210 275 314 324 323 336 338 326 324
Wind_Speed_850mb
56 57 58 61 63 65 67 67 64 58 52 42 35 31 29 29 29 27 22 12 5 3 2 4 10 16 23 14 8 14 12 15 23 32 30 21 32 29 14 19 33 14 16 31 38 38 34
56 56 57 58 60 62 63 64 63 59 52 43 35 29 28 29 30 29 22 10 1 4 2 8 14 22 23 16 12 12 24 22 13 17 21 27 25 26 24 23 16 21 28 33 39 45 43
55 55 55 57 58 61 62 62 62 59 53 46 34 27 26 27 30 29 21 7 4 3 1 7 15 26 25 19 11 17 19 11 16 11 12 16 19 16 25 16 26 41 19 22 40 41 26
54 54 54 55 57 59 61 62 61 59 55 47 39 27 23 24 28 29 20 5 2 8 9 14 19 25 21 15 13 8 19 16 19 18 15 24 18 26 29 31 35 18 13 11 21 15 16
54 55 56 56 57 60 61 61 61 58 56 51 42 30 21 21 24 24 19 7 4 5 10 17 21 16 27 13 7 14 10 13 22 17 23 23 23 32 40 11 13 7 6 15 17 24 15
54 55 55 57 60 60 61 62 62 59 56 52 46 37 22 18 19 18 20 20 13 14 16 24 29 18 23 9 20 10 10 15 20 22 30 24 22 12 11 4 7 14 17 18 18 22 27
54 54 56 58 62 65 66 65 63 62 57 52 47 41 30 18 18 13 16 22 20 7 14 21 34 27 19 13 16 10 8 17 27 25 13 28 4 15 9 12 11 13 16 19 27 26 13
54 56 57 59 61 64 68 70 67 64 60 54 50 43 34 19 17 10 14 13 21 24 35 41 47 48 26 15 16 17 5 11 20 15 24 14 12 11 6 8 11 17 21 25 14 18 24
55 56 58 60 62 65 68 71 71 68 63 56 52 46 36 19 8 13 17 16 28 27 11 34 33 31 20 16 25 25 8 15 15 16 19 10 19 26 9 13 17 15 14 16 22 25 22
55 55 56 58 62 67 71 72 72 70 66 59 53 48 38 17 13 17 18 16 20 28 5 10 17 10 17 21 28 15 10 2 7 15 13 12 17 26 14 19 11 10 23 23 28 22 20
54 54 54 57 61 67 71 74 74 72 68 62 54 50 31 16 10 12 16 22 32 4 7 20 14 18 10 16 22 6 17 13 16 18 15 16 26 27 24 7 11 12 21 25 28 28 20
57 57 56 58 61 64 69 74 74 73 70 64 53 49 29 11 5 20 24 29 18 3 11 15 18 18 20 23 17 37 18 29 30 17 20 25 42 30 20 7 3 22 16 19 24 16 3
56 55 55 58 63 66 68 72 75 72 70 66 56 45 32 22 9 12 25 17 5 7 6 11 4 8 15 16 22 1 8 10 10 14 13 13 20 21 13 3 10 12 12 10 10 8 9
56 55 55 57 60 66 71 73 73 73 69 67 56 47 27 14 4 16 12 6 8 19 19 14 16 15 14 24 6 6 9 15 18 15 7 2 15 7 18 6 10 8 9 7 8 5 22
54 58 60 60 63 66 70 74 73 71 69 68 60 45 29 7 3 7 6 4 10 7 19 10 18 10 17 23 2 7 10 15 11 8 2 5 9 24 27 22 12 7 6 16 11 12 8
52 55 58 60 60 64 68 71 75 72 69 66 62 44 20 7 16 3 2 12 15 26 10 13 7 6 14 20 22 22 13 18 13 15 16 7 18 14 26 30 25 14 14 6 6 8 11
53 56 58 58 61 65 66 67 71 74 71 63 44 23 12 17 9 9 7 13 28 19 11 3 6 11 17 22 19 20 12 28 17 16 22 13 4 8 20 8 21 19 10 10 11 8 8
54 57 57 59 62 66 65 65 63 68 70 62 28 11 16 9 5 13 9 14 30 28 21 5 10 14 16 16 14 20 25 16 32 6 7 8 6 14 26 32 35 31 27 17 7 15 10
49 52 54 57 60 63 63 61 58 57 61 64 45 21 23 18 6 9 16 19 36 24 18 4 3 9 15 16 11 11 18 31 44 17 4 5 6 10 15 14 6 6 15 10 8 5 18
47 52 55 57 57 58 60 61 59 51 47 50 17 8 19 35 19 17 18 12 21 28 31 39 15 14 10 15 15 15 19 13 44 36 46 17 13 18 27 22 16 35 51 44 27 12 28
54 56 55 57 59 61 60 58 58 53 40 36 8 12 21 10 17 34 17 16 37 35 37 42 7 14 16 12 14 15 23 27 27 38 16 5 13 19 30 39 42 45 44 46 47 37 33
53 54 54 55 56 57 55 52 53 49 38 20 16 15 25 42 41 27 16 14 31 36 30 13 14 19 16 14 13 21 19 9 11 11 16 6 21 21 46 31 35 45 49 49 41 43 43
54 54 54 55 55 53 52 49 46 45 36 10 23 27 19 15 21 22 20 30 36 41 21 42 20 14 16 22 35 32 31 30 21 18 26 17 21 9 53 18 33 35 41 38 45 43 38
50 51 51 51 50 49 48 46 42 37 33 26 26 30 19 15 18 23 41 51 40 37 27 36 36 19 38 19 30 32 40 45 51 42 48 33 30 12 32 14 30 18 18 27 38 36 30
46 47 47 46 46 45 44 42 40 34 32 32 25 18 29 15 31 38 39 38 54 55 42 47 46 37 30 15 8 13 8 26 24 41 39 38 29 10 14 19 27 37 33 23 30 24 15
43 43 43 42 42 42 41 40 38 36 31 31 27 15 31 22 15 37 50 42 28 21 19 26 43 50 37 2 4 8 7 19 10 15 19 10 30 22 4 10 10 5 31 51 17 12 12
41 40 40 40 40 40 39 38 37 36 32 31 33 16 34 44 54 55 32 25 34 31 18 33 36 50 36 3 9 11 22 16 12 15 25 13 6 11 14 10 11 12 8 29 8 10 39
39 38 38 38 38 38 38 38 37 35 32 33 38 21 27 44 70 72 79 71 60 50 23 29 27 8 11 12 11 14 8 1 10 14 10 8 7 6 8 9 9 25 34 8 12 31 34
36 35 36 37 37 36 36 37 35 36 32 29 43 26 33 53 73 76 71 75 76 76 65 53 32 45 11 5 3 5 7 7 9 9 15 9 4 7 8 10 35 45 36 38 53 45 43
Wind_Direction_850mb
33 31 29 27 27 26 24 22 22 21 21 20 18 16 16 15 11 4 359 353 1 43 267 314 336 341 342 318 255 342 19 5 17 357 343 347 11 1 358 305 333 348 317 314 319 323 316
32 29 28 26 23 22 21 20 19 18 16 15 13 11 10 10 9 4 359 350 24 66 316 309 328 337 346 292 309 316 342 343 357 1 348 12 4 335 294 334 331 291 313 314 294 277 271
28 27 25 22 20 18 16 16 14 14 14 11 6 4 3 3 4 3 360 358 182 138 42 316 326 329 322 271 317 293 296 310 301 328 326 329 328 342 313 294 285 305 303 292 271 250 238
23 22 22 20 16 14 12 11 10 8 9 8 5 357 354 356 357 0 0 15 223 236 265 289 300 316 287 238 343 290 298 296 323 293 312 298 294 298 272 267 289 261 269 268 302 34 265
20 18 16 15 14 10 8 6 6 4 2 2 1 355 345 343 352 351 1 350 274 276 271 286 295 311 282 209 323 324 281 301 320 308 292 285 273 264 280 271 306 27 298 329 323 339 325
15 14 13 11 9 8 4 2 1 1 359 356 356 352 337 332 335 347 343 322 290 281 277 283 271 294 269 275 335 306 281 314 295 280 291 267 239 239 268 225 287 331 336 323 303 308 311
11 10 9 7 6 4 3 1 359 358 358 353 351 347 338 322 327 326 352 356 346 301 254 244 276 244 297 331 313 306 235 317 280 258 265 286 136 246 295 34 351 323 300 285 284 282 324
6 4 4 4 4 5 4 3 360 356 355 353 347 345 339 318 323 309 317 316 347 303 299 288 262 258 278 256 282 295 265 339 338 296 295 318 238 199 42 320 287 267 268 275 279 335 336
3 1 0 360 359 359 359 360 359 356 353 352 346 344 339 319 297 317 305 309 336 320 297 292 253 220 269 205 268 297 278 321 313 293 292 320 279 291 3 315 293 289 291 333 325 323 300
359 356 356 355 354 353 353 355 356 355 351 350 346 343 338 321 294 312 324 343 311 328 314 250 177 227 224 247 245 243 206 12 307 290 319 291 267 339 328 284 348 346 338 325 302 295 291
354 353 351 351 352 351 350 350 352 352 351 347 347 341 339 329 306 293 8 332 334 324 316 143 179 167 223 227 265 193 198 198 244 277 301 254 293 293 275 270 51 275 279 267 278 286 296
351 350 350 350 351 351 349 348 348 349 348 346 347 338 335 281 253 1 330 315 324 337 251 165 149 198 207 240 313 299 189 228 249 241 249 253 270 255 265 59 353 274 292 315 284 266 234
349 349 350 350 349 349 349 347 344 346 346 343 344 334 321 247 236 357 314 323 343 220 228 114 83 15 347 309 286 294 290 338 265 283 288 309 305 277 129 181 265 308 357 324 340 354 244
346 348 347 346 347 346 346 346 344 344 345 340 342 335 314 291 181 354 316 357 249 276 310 26 12 320 280 268 210 283 235 253 269 265 230 264 309 329 24 15 286 301 172 184 279 299 299
340 342 343 343 344 344 345 345 345 344 346 341 339 339 306 171 102 305 318 269 242 264 336 13 331 338 320 352 225 246 291 288 288 91 101 358 252 315 330 329 326 293 303 237 258 264 319
331 336 338 339 342 344 343 344 344 345 347 347 340 332 325 229 198 273 147 242 280 286 351 24 348 319 294 325 342 339 325 301 336 327 141 219 294 274 303 312 293 182 217 305 300 304 257
326 330 333 336 339 342 342 344 344 343 345 349 344 330 206 157 247 199 212 247 283 310 78 52 336 331 317 313 311 303 290 315 5 10 21 13 265 301 338 279 283 292 298 273 212 177 224
330 328 331 332 335 337 339 340 346 344 341 350 357 311 170 324 235 233 229 261 324 337 330 194 176 235 258 284 302 307 303 286 335 54 325 351 272 283 263 283 279 269 272 262 183 268 237
319 321 323 327 331 336 338 340 345 348 344 344 333 282 339 210 241 285 305 324 329 309 327 74 282 347 325 306 315 266 292 306 308 304 241 166 281 324 304 304 333 43 337 310 263 8 261
316 318 322 324 329 333 334 337 339 346 342 336 317 297 335 330 310 23 359 318 314 316 312 306 254 231 284 278 269 260 258 289 316 318 331 186 193 212 255 251 283 285 296 296 286 241 275
317 319 321 324 327 330 331 333 333 337 343 328 270 302 352 313 324 323 313 289 294 297 294 292 288 220 239 266 291 292 314 315 306 306 323 185 243 246 260 270 265 266 268 265 273 276 279
313 316 318 320 324 325 327 329 330 333 338 326 309 349 330 304 298 309 315 307 301 296 289 299 329 312 312 288 272 296 299 313 252 307 303 275 277 279 274 276 280 285 271 268 271 278 277
310 314 316 319 321 323 326 329 332 332 341 330 293 304 330 280 295 290 281 286 303 318 312 323 326 327 309 296 304 309 311 299 268 268 264 257 275 299 275 300 300 279 251 261 265 261 262
310 313 316 318 320 322 325 327 329 330 329 317 312 321 280 281 290 293 303 305 314 325 322 319 322 316 301 313 315 310 300 282 269 261 250 251 248 241 267 307 267 259 246 257 263 262 261
311 312 314 317 319 321 323 325 325 325 318 310 316 312 307 290 302 292 292 329 321 321 314 310 305 311 337 336 339 305 274 275 260 245 245 221 228 233 234 230 275 309 296 312 303 282 24
309 311 313 316 318 320 322 323 322 322 319 310 301 273 304 291 255 293 312 305 293 305 311 322 312 324 329 333 215 250 263 326 280 306 322 321 220 224 166 215 228 276 35 357 326 283 28
308 310 313 315 317 319 319 320 319 320 318 312 305 320 307 284 282 275 286 301 300 298 289 300 305 317 317 268 264 262 262 256 260 267 288 308 337 211 241 258 261 280 14 5 347 295 311
307 309 311 314 316 317 318 319 319 318 322 321 306 305 302 285 282 275 278 278 281 276 278 294 329 293 300 255 246 250 268 274 286 326 344 272 308 266 269 236 261 347 341 347 275 306 305
305 307 310 313 314 317 315 315 318 316 316 314 301 302 281 289 273 278 265 267 265 266 275 277 264 290 298 349 335 320 304 301 274 271 312 286 333 280 210 275 314 324 323 336 338 326 324